QPF
0.00 0.00 0.00 0.00 0.00 0.00 0.00 0.00 0.01 0.01 0.01 0.02 0.03 0.06 0.05 0.04 0.02 0.01 0.01 0.01 0.02 0.03 0.03 0.02 0.02 0.02 0.03 0.03 0.01 0.01 0.00 0.00 0.00 0.00 0.00 0.00 0.00 0.00 0.00 0.01 0.03 0.10 0.02
0.00 0.00 0.00 0.00 0.00 0.00 0.00 0.00 0.01 0.01 0.01 0.02 0.03 0.05 0.04 0.03 0.02 0.01 0.01 0.01 0.01 0.03 0.03 0.02 0.01 0.02 0.04 0.02 0.01 0.00 0.00 0.00 0.00 0.00 0.00 0.00 0.01 0.00 0.00 0.01 0.04 0.12 0.05
0.00 0.00 0.00 0.00 0.00 0.00 0.00 0.01 0.01 0.01 0.01 0.01 0.02 0.03 0.03 0.02 0.02 0.01 0.00 0.00 0.01 0.01 0.01 0.01 0.00 0.01 0.01 0.00 0.00 0.00 0.00 0.00 0.00 0.00 0.01 0.05 0.13 0.02 0.00 0.00 0.01 0.02 0.03
0.00 0.00 0.00 0.00 0.00 0.00 0.00 0.01 0.02 0.03 0.02 0.02 0.02 0.02 0.02 0.01 0.01 0.01 0.01 0.01 0.01 0.01 0.00 0.00 0.00 0.00 0.00 0.00 0.00 0.00 0.00 0.00 0.00 0.00 0.02 0.06 0.15 0.04 0.00 0.00 0.00 0.00 0.01
0.00 0.00 0.00 0.00 0.00 0.00 0.01 0.01 0.03 0.04 0.03 0.02 0.02 0.02 0.01 0.00 0.00 0.00 0.00 0.00 0.00 0.00 0.00 0.00 0.00 0.00 0.00 0.00 0.00 0.00 0.00 0.00 0.00 0.01 0.03 0.08 0.09 0.02 0.00 0.00 0.00 0.01 0.01
0.00 0.00 0.00 0.00 0.00 0.01 0.02 0.03 0.04 0.04 0.03 0.02 0.02 0.02 0.01 0.01 0.00 0.00 0.00 0.00 0.00 0.00 0.00 0.00 0.00 0.01 0.01 0.00 0.00 0.00 0.00 0.00 0.01 0.03 0.04 0.07 0.05 0.01 0.00 0.01 0.01 0.01 0.01
0.00 0.00 0.00 0.00 0.01 0.02 0.04 0.05 0.06 0.05 0.03 0.03 0.02 0.02 0.01 0.01 0.00 0.00 0.00 0.00 0.00 0.01 0.01 0.01 0.01 0.00 0.00 0.00 0.00 0.01 0.00 0.00 0.01 0.02 0.02 0.05 0.06 0.01 0.01 0.02 0.01 0.01 0.00
0.00 0.00 0.00 0.00 0.01 0.03 0.04 0.05 0.05 0.03 0.02 0.02 0.03 0.03 0.02 0.01 0.01 0.00 0.00 0.00 0.01 0.01 0.01 0.00 0.00 0.00 0.00 0.00 0.00 0.01 0.01 0.01 0.01 0.01 0.03 0.07 0.08 0.01 0.01 0.01 0.02 0.02 0.01
0.00 0.00 0.00 0.00 0.01 0.02 0.03 0.02 0.02 0.01 0.01 0.02 0.03 0.04 0.03 0.02 0.01 0.01 0.01 0.01 0.01 0.01 0.00 0.00 0.00 0.00 0.00 0.00 0.00 0.00 0.01 0.00 0.00 0.01 0.01 0.03 0.03 0.00 0.00 0.00 0.00 0.00 0.00
0.00 0.00 0.00 0.01 0.04 0.02 0.01 0.01 0.01 0.00 0.00 0.01 0.04 0.04 0.02 0.02 0.01 0.01 0.02 0.01 0.00 0.00 0.00 0.00 0.00 0.00 0.00 0.00 0.00 0.00 0.00 0.00 0.00 0.00 0.00 0.00 0.00 0.00 0.00 0.00 0.00 0.00 0.00
0.00 0.00 0.00 0.00 0.02 0.02 0.02 0.00 0.00 0.00 0.00 0.00 0.01 0.01 0.01 0.04 0.07 0.07 0.04 0.00 0.00 0.00 0.00 0.00 0.00 0.00 0.00 0.00 0.00 0.00 0.00 0.00 0.00 0.00 0.00 0.00 0.00 0.00 0.00 0.00 0.00 0.00 0.00
0.00 0.00 0.00 0.00 0.00 0.01 0.01 0.00 0.00 0.00 0.00 0.01 0.02 0.01 0.03 0.09 0.10 0.07 0.03 0.00 0.00 0.00 0.00 0.00 0.00 0.00 0.00 0.00 0.00 0.00 0.00 0.00 0.00 0.00 0.00 0.00 0.00 0.00 0.00 0.00 0.00 0.00 0.00
0.00 0.00 0.00 0.00 0.00 0.08 0.07 0.01 0.01 0.01 0.01 0.01 0.02 0.02 0.06 0.04 0.03 0.02 0.01 0.00 0.00 0.00 0.00 0.00 0.00 0.00 0.00 0.00 0.00 0.00 0.00 0.00 0.00 0.00 0.00 0.00 0.00 0.00 0.00 0.00 0.00 0.00 0.00
0.00 0.00 0.00 0.00 0.00 0.04 0.06 0.01 0.00 0.00 0.00 0.02 0.02 0.01 0.02 0.02 0.01 0.02 0.02 0.01 0.00 0.00 0.00 0.00 0.00 0.00 0.00 0.00 0.00 0.00 0.00 0.00 0.00 0.00 0.00 0.00 0.00 0.00 0.00 0.00 0.00 0.00 0.00
0.00 0.00 0.00 0.00 0.01 0.01 0.00 0.00 0.00 0.00 0.00 0.00 0.00 0.00 0.00 0.01 0.01 0.01 0.01 0.00 0.00 0.00 0.00 0.00 0.00 0.00 0.00 0.00 0.00 0.00 0.00 0.00 0.00 0.00 0.00 0.00 0.00 0.00 0.00 0.00 0.00 0.00 0.00
0.00 0.00 0.00 0.00 0.00 0.01 0.01 0.00 0.00 0.00 0.00 0.00 0.00 0.00 0.00 0.01 0.02 0.02 0.02 0.01 0.00 0.00 0.00 0.00 0.00 0.00 0.00 0.00 0.00 0.00 0.00 0.00 0.00 0.00 0.00 0.02 0.03 0.01 0.00 0.00 0.00 0.00 0.00
0.00 0.00 0.00 0.00 0.00 0.00 0.00 0.00 0.00 0.00 0.00 0.00 0.00 0.00 0.00 0.01 0.02 0.02 0.02 0.02 0.01 0.00 0.00 0.00 0.00 0.00 0.00 0.00 0.00 0.00 0.00 0.00 0.00 0.00 0.00 0.01 0.02 0.03 0.01 0.01 0.01 0.01 0.00
0.00 0.00 0.00 0.00 0.00 0.00 0.00 0.01 0.01 0.01 0.01 0.01 0.01 0.01 0.00 0.00 0.00 0.00 0.01 0.02 0.01 0.00 0.00 0.00 0.00 0.00 0.00 0.00 0.00 0.00 0.00 0.00 0.00 0.00 0.00 0.00 0.00 0.01 0.03 0.02 0.01 0.01 0.01
0.00 0.00 0.00 0.00 0.00 0.00 0.01 0.02 0.04 0.03 0.03 0.02 0.02 0.01 0.00 0.00 0.00 0.00 0.01 0.01 0.00 0.00 0.00 0.00 0.01 0.00 0.00 0.00 0.00 0.00 0.00 0.00 0.00 0.00 0.00 0.00 0.00 0.00 0.01 0.01 0.01 0.01 0.01
0.00 0.00 0.00 0.00 0.00 0.00 0.01 0.03 0.03 0.02 0.02 0.01 0.01 0.01 0.00 0.00 0.00 0.00 0.00 0.00 0.00 0.00 0.00 0.00 0.01 0.00 0.00 0.00 0.00 0.00 0.00 0.00 0.00 0.00 0.00 0.00 0.00 0.00 0.00 0.00 0.00 0.01 0.02
0.00 0.00 0.00 0.00 0.00 0.01 0.02 0.03 0.02 0.02 0.01 0.00 0.00 0.00 0.00 0.00 0.00 0.00 0.00 0.00 0.00 0.00 0.00 0.00 0.00 0.00 0.00 0.00 0.00 0.00 0.00 0.00 0.00 0.00 0.00 0.00 0.00 0.00 0.00 0.00 0.00 0.00 0.00
0.00 0.00 0.00 0.00 0.01 0.01 0.04 0.04 0.02 0.01 0.00 0.00 0.00 0.00 0.00 0.00 0.00 0.00 0.00 0.00 0.00 0.00 0.00 0.00 0.00 0.00 0.00 0.00 0.00 0.00 0.00 0.00 0.00 0.00 0.00 0.00 0.00 0.00 0.00 0.00 0.00 0.00 0.00
0.00 0.00 0.01 0.02 0.03 0.04 0.03 0.01 0.00 0.01 0.00 0.00 0.00 0.00 0.00 0.00 0.00 0.00 0.00 0.00 0.00 0.00 0.00 0.00 0.00 0.00 0.00 0.00 0.00 0.00 0.00 0.00 0.00 0.00 0.00 0.00 0.00 0.00 0.00 0.00 0.00 0.00 0.00
0.01 0.03 0.04 0.07 0.07 0.04 0.02 0.01 0.01 0.01 0.01 0.01 0.01 0.01 0.00 0.00 0.00 0.00 0.00 0.00 0.00 0.00 0.00 0.00 0.00 0.00 0.00 0.00 0.00 0.00 0.00 0.00 0.00 0.00 0.00 0.00 0.00 0.00 0.00 0.00 0.00 0.00 0.00
0.06 0.08 0.10 0.11 0.08 0.05 0.04 0.03 0.03 0.03 0.03 0.02 0.01 0.00 0.00 0.00 0.00 0.00 0.00 0.00 0.00 0.00 0.00 0.00 0.00 0.00 0.00 0.00 0.00 0.00 0.00 0.00 0.00 0.00 0.00 0.00 0.00 0.00 0.00 0.00 0.00 0.00 0.00
0.11 0.13 0.14 0.14 0.11 0.09 0.08 0.07 0.05 0.04 0.03 0.02 0.01 0.00 0.00 0.00 0.00 0.00 0.00 0.00 0.00 0.00 0.00 0.00 0.00 0.00 0.00 0.00 0.00 0.00 0.00 0.00 0.00 0.00 0.00 0.00 0.00 0.00 0.00 0.00 0.00 0.00 0.00
MSLP
1010.24 1010.46 1010.87 1011.42 1012.01 1012.57 1013.03 1013.37 1013.59 1013.74 1013.87 1014.04 1014.28 1014.59 1014.95 1015.31 1015.64 1015.91 1016.09 1016.21 1016.30 1016.38 1016.49 1016.64 1016.82 1017.01 1017.18 1017.30 1017.36 1017.36 1017.31 1017.24 1017.19 1017.18 1017.23 1017.32 1017.45 1017.59 1017.72 1017.84 1017.93 1018.02 1018.13
1010.24 1010.58 1011.09 1011.72 1012.36 1012.94 1013.38 1013.68 1013.84 1013.94 1014.03 1014.17 1014.41 1014.74 1015.13 1015.53 1015.89 1016.18 1016.37 1016.48 1016.54 1016.59 1016.67 1016.79 1016.95 1017.11 1017.26 1017.36 1017.38 1017.34 1017.26 1017.16 1017.09 1017.07 1017.12 1017.23 1017.39 1017.56 1017.71 1017.85 1017.95 1018.05 1018.15
1010.16 1010.60 1011.21 1011.90 1012.60 1013.19 1013.63 1013.91 1014.05 1014.11 1014.18 1014.31 1014.54 1014.88 1015.27 1015.68 1016.04 1016.31 1016.48 1016.57 1016.62 1016.66 1016.73 1016.84 1017.00 1017.16 1017.29 1017.36 1017.35 1017.28 1017.16 1017.03 1016.94 1016.92 1016.98 1017.11 1017.29 1017.49 1017.67 1017.83 1017.95 1018.05 1018.16
1010.02 1010.55 1011.23 1011.98 1012.71 1013.33 1013.78 1014.06 1014.20 1014.27 1014.34 1014.47 1014.70 1015.02 1015.40 1015.77 1016.10 1016.34 1016.48 1016.56 1016.60 1016.64 1016.73 1016.86 1017.03 1017.20 1017.32 1017.37 1017.34 1017.22 1017.06 1016.90 1016.80 1016.77 1016.84 1017.00 1017.21 1017.44 1017.66 1017.84 1017.98 1018.09 1018.20
1009.86 1010.45 1011.19 1011.98 1012.74 1013.39 1013.86 1014.16 1014.33 1014.42 1014.52 1014.66 1014.89 1015.20 1015.54 1015.87 1016.14 1016.34 1016.45 1016.50 1016.55 1016.62 1016.74 1016.92 1017.12 1017.30 1017.42 1017.45 1017.38 1017.22 1017.02 1016.83 1016.71 1016.68 1016.77 1016.95 1017.20 1017.46 1017.70 1017.90 1018.05 1018.18 1018.30
1009.75 1010.38 1011.15 1011.96 1012.74 1013.40 1013.90 1014.24 1014.44 1014.58 1014.71 1014.89 1015.13 1015.41 1015.72 1016.00 1016.21 1016.36 1016.43 1016.48 1016.54 1016.65 1016.82 1017.04 1017.28 1017.47 1017.59 1017.59 1017.47 1017.27 1017.03 1016.82 1016.68 1016.66 1016.77 1016.97 1017.24 1017.53 1017.80 1018.02 1018.18 1018.32 1018.44
1009.73 1010.38 1011.16 1011.97 1012.75 1013.41 1013.92 1014.29 1014.54 1014.73 1014.91 1015.12 1015.38 1015.66 1015.93 1016.16 1016.32 1016.42 1016.48 1016.52 1016.61 1016.75 1016.96 1017.22 1017.48 1017.68 1017.78 1017.75 1017.59 1017.34 1017.06 1016.83 1016.68 1016.67 1016.80 1017.04 1017.34 1017.65 1017.94 1018.17 1018.34 1018.47 1018.58
1009.81 1010.46 1011.23 1012.03 1012.78 1013.43 1013.94 1014.32 1014.61 1014.85 1015.08 1015.33 1015.60 1015.88 1016.13 1016.33 1016.46 1016.53 1016.57 1016.62 1016.72 1016.89 1017.13 1017.41 1017.67 1017.86 1017.93 1017.85 1017.65 1017.36 1017.05 1016.80 1016.66 1016.67 1016.83 1017.10 1017.43 1017.77 1018.07 1018.31 1018.48 1018.59 1018.69
1009.94 1010.60 1011.34 1012.11 1012.82 1013.43 1013.92 1014.29 1014.60 1014.87 1015.14 1015.44 1015.74 1016.03 1016.28 1016.46 1016.57 1016.62 1016.65 1016.70 1016.81 1016.99 1017.24 1017.52 1017.76 1017.92 1017.95 1017.83 1017.59 1017.27 1016.95 1016.70 1016.58 1016.62 1016.81 1017.12 1017.48 1017.85 1018.16 1018.40 1018.56 1018.66 1018.74
1010.07 1010.73 1011.45 1012.16 1012.81 1013.37 1013.81 1014.17 1014.47 1014.76 1015.07 1015.39 1015.72 1016.04 1016.30 1016.48 1016.59 1016.64 1016.67 1016.72 1016.83 1017.00 1017.24 1017.49 1017.70 1017.82 1017.80 1017.65 1017.38 1017.05 1016.74 1016.51 1016.43 1016.51 1016.74 1017.08 1017.48 1017.86 1018.18 1018.42 1018.58 1018.66 1018.72
1010.12 1010.79 1011.48 1012.15 1012.73 1013.21 1013.60 1013.91 1014.20 1014.49 1014.82 1015.18 1015.54 1015.88 1016.17 1016.37 1016.49 1016.55 1016.58 1016.63 1016.73 1016.89 1017.09 1017.31 1017.48 1017.56 1017.51 1017.33 1017.06 1016.75 1016.46 1016.28 1016.23 1016.36 1016.63 1017.00 1017.42 1017.81 1018.14 1018.38 1018.52 1018.60 1018.64
1010.05 1010.74 1011.41 1012.02 1012.53 1012.94 1013.26 1013.53 1013.79 1014.08 1014.43 1014.81 1015.21 1015.58 1015.90 1016.13 1016.27 1016.35 1016.39 1016.43 1016.52 1016.65 1016.83 1017.00 1017.13 1017.18 1017.12 1016.95 1016.70 1016.42 1016.19 1016.05 1016.05 1016.21 1016.51 1016.90 1017.32 1017.71 1018.04 1018.27 1018.41 1018.48 1018.51
1009.88 1010.58 1011.23 1011.79 1012.24 1012.57 1012.84 1013.06 1013.31 1013.60 1013.95 1014.36 1014.79 1015.20 1015.54 1015.81 1015.98 1016.08 1016.13 1016.18 1016.26 1016.37 1016.51 1016.66 1016.77 1016.81 1016.75 1016.60 1016.40 1016.18 1015.99 1015.91 1015.94 1016.12 1016.42 1016.80 1017.20 1017.58 1017.89 1018.12 1018.25 1018.32 1018.35
1009.64 1010.35 1010.98 1011.49 1011.88 1012.16 1012.39 1012.59 1012.83 1013.12 1013.49 1013.92 1014.38 1014.81 1015.19 1015.49 1015.69 1015.81 1015.89 1015.95 1016.02 1016.12 1016.25 1016.38 1016.49 1016.53 1016.50 1016.40 1016.25 1016.08 1015.95 1015.90 1015.95 1016.12 1016.39 1016.72 1017.08 1017.41 1017.70 1017.91 1018.05 1018.13 1018.17
1009.39 1010.09 1010.69 1011.17 1011.52 1011.78 1011.99 1012.20 1012.45 1012.76 1013.16 1013.61 1014.08 1014.54 1014.94 1015.26 1015.48 1015.63 1015.73 1015.81 1015.89 1016.00 1016.12 1016.26 1016.37 1016.44 1016.45 1016.40 1016.30 1016.19 1016.09 1016.05 1016.08 1016.20 1016.41 1016.66 1016.94 1017.22 1017.46 1017.66 1017.80 1017.89 1017.96
1009.20 1009.88 1010.45 1010.89 1011.23 1011.49 1011.72 1011.96 1012.25 1012.60 1013.03 1013.50 1013.98 1014.45 1014.85 1015.18 1015.43 1015.60 1015.72 1015.82 1015.93 1016.05 1016.19 1016.34 1016.47 1016.57 1016.62 1016.61 1016.56 1016.48 1016.39 1016.33 1016.31 1016.35 1016.45 1016.61 1016.79 1016.99 1017.17 1017.34 1017.49 1017.60 1017.70
1009.11 1009.75 1010.28 1010.70 1011.04 1011.33 1011.61 1011.91 1012.26 1012.67 1013.13 1013.62 1014.10 1014.56 1014.95 1015.28 1015.53 1015.72 1015.87 1016.00 1016.14 1016.28 1016.45 1016.61 1016.77 1016.89 1016.97 1017.00 1016.96 1016.88 1016.78 1016.67 1016.58 1016.52 1016.50 1016.54 1016.61 1016.72 1016.85 1016.99 1017.13 1017.27 1017.39
1009.11 1009.69 1010.18 1010.60 1010.96 1011.30 1011.65 1012.04 1012.46 1012.93 1013.43 1013.93 1014.40 1014.84 1015.21 1015.52 1015.78 1015.98 1016.16 1016.32 1016.48 1016.66 1016.84 1017.03 1017.20 1017.34 1017.44 1017.47 1017.43 1017.34 1017.20 1017.03 1016.84 1016.68 1016.54 1016.46 1016.42 1016.45 1016.52 1016.63 1016.77 1016.91 1017.06
1009.16 1009.70 1010.15 1010.56 1010.95 1011.36 1011.80 1012.27 1012.79 1013.32 1013.85 1014.36 1014.82 1015.22 1015.57 1015.86 1016.10 1016.32 1016.51 1016.71 1016.91 1017.11 1017.32 1017.52 1017.70 1017.84 1017.93 1017.95 1017.90 1017.78 1017.59 1017.36 1017.09 1016.83 1016.59 1016.40 1016.28 1016.23 1016.24 1016.33 1016.45 1016.60 1016.74
1009.24 1009.72 1010.15 1010.56 1010.99 1011.46 1011.98 1012.55 1013.15 1013.74 1014.30 1014.81 1015.26 1015.63 1015.95 1016.21 1016.45 1016.67 1016.89 1017.12 1017.35 1017.58 1017.80 1018.01 1018.18 1018.31 1018.39 1018.39 1018.32 1018.17 1017.94 1017.66 1017.34 1017.01 1016.69 1016.43 1016.24 1016.12 1016.10 1016.14 1016.24 1016.37 1016.51
1009.30 1009.76 1010.17 1010.59 1011.04 1011.57 1012.16 1012.81 1013.47 1014.12 1014.71 1015.22 1015.65 1016.00 1016.29 1016.54 1016.77 1017.00 1017.25 1017.50 1017.75 1018.00 1018.24 1018.44 1018.61 1018.72 1018.77 1018.76 1018.67 1018.50 1018.26 1017.96 1017.61 1017.25 1016.90 1016.59 1016.35 1016.20 1016.13 1016.13 1016.20 1016.28 1016.38
1009.35 1009.80 1010.21 1010.63 1011.11 1011.67 1012.31 1013.01 1013.72 1014.41 1015.02 1015.54 1015.96 1016.29 1016.57 1016.81 1017.04 1017.29 1017.55 1017.83 1018.10 1018.36 1018.60 1018.79 1018.94 1019.04 1019.08 1019.05 1018.96 1018.80 1018.57 1018.29 1017.95 1017.59 1017.24 1016.92 1016.66 1016.47 1016.36 1016.31 1016.31 1016.34 1016.37
1009.43 1009.90 1010.31 1010.72 1011.20 1011.77 1012.43 1013.16 1013.90 1014.61 1015.24 1015.76 1016.18 1016.52 1016.79 1017.03 1017.27 1017.53 1017.81 1018.09 1018.38 1018.64 1018.87 1019.05 1019.18 1019.27 1019.30 1019.28 1019.20 1019.08 1018.89 1018.64 1018.35 1018.03 1017.70 1017.39 1017.12 1016.90 1016.74 1016.63 1016.56 1016.50 1016.45
1009.61 1010.10 1010.51 1010.91 1011.37 1011.92 1012.58 1013.30 1014.05 1014.76 1015.40 1015.94 1016.36 1016.70 1016.98 1017.23 1017.48 1017.74 1018.03 1018.31 1018.59 1018.84 1019.05 1019.21 1019.33 1019.40 1019.43 1019.43 1019.39 1019.31 1019.18 1019.00 1018.78 1018.51 1018.22 1017.92 1017.65 1017.40 1017.18 1016.99 1016.83 1016.68 1016.52
1009.93 1010.45 1010.86 1011.24 1011.66 1012.18 1012.80 1013.49 1014.22 1014.92 1015.56 1016.10 1016.54 1016.89 1017.18 1017.44 1017.69 1017.94 1018.21 1018.48 1018.73 1018.95 1019.13 1019.27 1019.37 1019.43 1019.47 1019.49 1019.50 1019.47 1019.41 1019.31 1019.15 1018.95 1018.69 1018.42 1018.12 1017.84 1017.56 1017.29 1017.03 1016.77 1016.51
1010.43 1010.98 1011.38 1011.72 1012.10 1012.56 1013.12 1013.77 1014.46 1015.14 1015.77 1016.31 1016.76 1017.11 1017.40 1017.66 1017.89 1018.13 1018.37 1018.60 1018.80 1018.98 1019.12 1019.22 1019.29 1019.35 1019.40 1019.44 1019.49 1019.52 1019.52 1019.48 1019.39 1019.23 1019.01 1018.74 1018.44 1018.10 1017.76 1017.41 1017.05 1016.70 1016.35
Thickness
5811 5803 5796 5791 5787 5785 5783 5780 5778 5775 5773 5770 5768 5765 5763 5763 5762 5761 5760 5759 5758 5757 5757 5755 5754 5753 5752 5752 5752 5752 5752 5752 5752 5752 5753 5753 5753 5753 5753 5752 5752 5752 5750
5811 5799 5792 5787 5782 5779 5776 5774 5772 5770 5768 5765 5763 5761 5759 5759 5758 5757 5757 5755 5754 5753 5753 5751 5750 5749 5749 5749 5749 5749 5749 5750 5750 5750 5750 5750 5749 5749 5749 5748 5749 5748 5747
5805 5795 5787 5782 5777 5773 5771 5768 5767 5765 5763 5761 5759 5757 5755 5755 5754 5753 5753 5751 5750 5750 5749 5747 5746 5746 5746 5746 5746 5746 5747 5748 5748 5748 5748 5748 5746 5745 5745 5744 5744 5743 5743
5802 5792 5785 5778 5773 5769 5766 5763 5762 5760 5759 5757 5756 5754 5752 5751 5751 5750 5749 5747 5746 5746 5744 5743 5742 5742 5742 5742 5742 5743 5744 5746 5746 5747 5749 5750 5744 5742 5742 5741 5740 5739 5738
5801 5790 5780 5774 5769 5765 5762 5760 5758 5757 5755 5754 5752 5750 5749 5748 5747 5746 5745 5744 5742 5741 5740 5739 5738 5738 5738 5738 5739 5739 5741 5742 5743 5745 5746 5746 5742 5739 5739 5738 5737 5736 5735
5798 5788 5778 5772 5767 5763 5760 5758 5755 5754 5752 5751 5749 5747 5746 5744 5743 5743 5742 5741 5739 5738 5737 5736 5735 5735 5735 5734 5734 5735 5737 5738 5740 5743 5744 5743 5737 5735 5734 5733 5732 5732 5731
5797 5786 5776 5770 5765 5761 5758 5755 5752 5750 5749 5747 5746 5744 5742 5740 5739 5739 5738 5738 5736 5735 5734 5732 5731 5731 5730 5730 5730 5731 5732 5735 5737 5739 5741 5739 5732 5729 5727 5726 5726 5726 5725
5796 5784 5774 5768 5763 5760 5756 5753 5750 5748 5746 5744 5743 5741 5739 5738 5737 5736 5735 5734 5733 5731 5729 5728 5727 5727 5726 5726 5726 5727 5729 5730 5732 5734 5734 5732 5726 5723 5720 5719 5718 5718 5718
5795 5783 5773 5766 5761 5757 5754 5751 5749 5747 5744 5741 5739 5737 5736 5735 5734 5733 5732 5731 5729 5727 5726 5724 5723 5722 5722 5722 5723 5724 5726 5727 5727 5727 5728 5726 5720 5716 5714 5713 5712 5711 5710
5794 5785 5776 5768 5762 5757 5753 5750 5746 5744 5741 5738 5736 5734 5733 5732 5732 5730 5728 5727 5725 5723 5722 5720 5719 5719 5719 5719 5720 5722 5723 5723 5725 5724 5722 5719 5714 5711 5708 5706 5705 5704 5704
5790 5785 5778 5771 5765 5759 5754 5748 5744 5741 5738 5736 5734 5733 5731 5730 5729 5727 5726 5723 5722 5720 5719 5717 5716 5716 5716 5716 5717 5718 5719 5720 5723 5720 5718 5715 5711 5707 5703 5701 5699 5698 5698
5786 5784 5781 5776 5770 5764 5757 5750 5746 5742 5739 5737 5735 5732 5730 5729 5727 5726 5723 5721 5719 5718 5715 5715 5714 5714 5714 5714 5713 5714 5715 5716 5717 5716 5713 5710 5707 5703 5700 5697 5694 5692 5692
5789 5786 5785 5779 5775 5766 5759 5753 5752 5748 5742 5740 5736 5734 5730 5728 5726 5724 5720 5717 5715 5714 5712 5712 5711 5712 5713 5713 5712 5712 5713 5713 5711 5708 5704 5703 5701 5699 5695 5692 5689 5687 5685
5791 5788 5785 5781 5775 5770 5765 5761 5758 5752 5746 5742 5736 5732 5729 5727 5726 5724 5720 5717 5715 5714 5713 5712 5712 5713 5712 5710 5709 5708 5708 5708 5705 5699 5695 5695 5694 5692 5689 5686 5683 5681 5679
5792 5788 5785 5782 5775 5770 5766 5763 5760 5753 5747 5740 5735 5731 5728 5726 5723 5722 5719 5715 5714 5712 5711 5709 5710 5709 5707 5706 5704 5703 5701 5700 5698 5693 5688 5687 5685 5683 5681 5679 5676 5674 5671
5791 5786 5784 5779 5773 5768 5763 5759 5756 5751 5745 5741 5736 5731 5727 5724 5720 5718 5716 5711 5709 5707 5706 5704 5704 5703 5701 5699 5697 5695 5693 5691 5688 5684 5681 5678 5676 5674 5672 5670 5668 5665 5662
5791 5785 5780 5776 5771 5765 5760 5756 5754 5750 5744 5739 5734 5729 5724 5721 5717 5713 5711 5707 5702 5702 5701 5699 5696 5695 5693 5690 5688 5686 5684 5681 5679 5676 5674 5671 5668 5665 5663 5660 5657 5654 5651
5792 5784 5778 5776 5770 5762 5759 5755 5752 5747 5741 5734 5729 5723 5718 5715 5711 5707 5704 5700 5696 5696 5694 5690 5686 5683 5680 5677 5676 5675 5673 5671 5669 5668 5666 5664 5661 5657 5652 5649 5645 5642 5639
5791 5782 5776 5775 5769 5761 5757 5752 5747 5742 5736 5729 5723 5717 5712 5708 5704 5701 5697 5691 5689 5686 5682 5677 5672 5669 5665 5663 5662 5663 5663 5661 5659 5657 5656 5654 5652 5648 5643 5639 5635 5631 5627
5786 5780 5774 5772 5767 5760 5753 5746 5739 5734 5729 5722 5716 5711 5705 5700 5696 5692 5688 5682 5678 5674 5669 5664 5660 5656 5653 5651 5651 5652 5650 5649 5647 5646 5644 5643 5640 5635 5630 5625 5620 5617 5613
5777 5772 5769 5765 5761 5755 5746 5737 5729 5723 5719 5713 5708 5702 5696 5691 5686 5682 5678 5673 5669 5663 5658 5655 5649 5644 5641 5640 5637 5637 5638 5638 5635 5632 5631 5629 5626 5621 5616 5610 5605 5600 5598
5766 5763 5761 5757 5753 5747 5740 5733 5725 5718 5711 5704 5697 5691 5686 5681 5676 5672 5667 5663 5658 5652 5648 5644 5638 5632 5627 5624 5619 5617 5616 5617 5618 5616 5611 5609 5606 5602 5598 5593 5588 5583 5580
5757 5754 5752 5748 5743 5738 5732 5725 5716 5707 5699 5691 5684 5680 5675 5670 5665 5660 5656 5651 5645 5640 5635 5629 5624 5619 5612 5608 5606 5601 5597 5595 5593 5595 5591 5588 5585 5582 5578 5573 5569 5566 5563
5751 5748 5744 5738 5732 5728 5723 5715 5706 5697 5689 5683 5676 5670 5664 5659 5654 5649 5644 5638 5632 5627 5623 5617 5609 5604 5600 5595 5592 5589 5584 5579 5573 5573 5571 5570 5569 5565 5562 5558 5554 5551 5549
5743 5739 5734 5728 5721 5716 5712 5706 5699 5691 5682 5674 5667 5660 5655 5649 5643 5637 5631 5625 5620 5616 5610 5604 5598 5592 5586 5580 5574 5569 5565 5562 5559 5556 5555 5553 5550 5548 5546 5543 5540 5538 5536
5731 5725 5720 5714 5708 5703 5699 5693 5686 5678 5670 5662 5655 5648 5643 5638 5632 5625 5619 5612 5608 5604 5599 5593 5587 5580 5573 5566 5558 5553 5549 5545 5541 5537 5536 5535 5532 5530 5527 5524 5522 5523 5523